Wind_Speed
14 15 14 12 13 14 13 13 14 15 18 20 20 22 23 23 24 25 25 26 29 31 31 31 30 26 24 22 21 20 19 19 19 19 20 22 23 23 25 25 26 27 28 29
10 10 12 13 14 17 18 16 15 16 18 19 19 20 23 24 25 25 26 29 31 34 33 36 33 29 27 25 23 22 20 20 20 21 22 23 25 26 27 28 29 29 30 31
11 11 13 16 17 19 21 20 16 15 16 18 20 22 25 27 28 30 31 32 33 34 32 30 29 27 28 26 25 24 22 22 23 23 25 26 27 28 30 31 32 32 33 33
13 14 16 17 17 18 18 18 17 16 16 15 17 21 25 28 30 31 32 32 33 32 30 29 28 27 27 26 25 26 25 24 25 26 27 29 30 31 32 34 34 35 35 36
11 13 15 15 15 16 15 14 17 18 17 17 17 20 25 28 30 32 32 32 31 30 31 28 26 26 27 27 27 26 27 27 27 29 31 32 32 33 34 36 36 37 37 37
12 14 14 15 15 16 16 15 16 18 18 21 20 21 27 30 30 29 30 30 30 29 29 28 27 27 27 27 27 28 29 30 30 32 33 33 34 36 37 37 38 38 37 37
12 13 15 14 16 17 19 17 15 15 19 21 19 23 32 31 31 28 26 28 28 29 29 28 28 28 28 29 29 30 31 32 34 35 36 37 38 38 38 38 37 37 37 37
14 13 13 14 15 16 17 19 18 14 15 17 19 29 34 32 27 23 22 25 27 28 29 29 30 30 30 31 32 33 33 34 36 37 39 39 40 39 38 38 39 39 39 38
11 11 12 13 14 16 16 19 18 18 19 19 25 32 33 31 28 25 23 24 26 26 27 27 29 30 31 33 34 35 36 37 37 38 39 40 40 40 40 39 39 39 40 41
7 8 11 12 14 16 17 15 18 19 17 18 24 30 32 26 26 26 25 24 25 25 26 26 27 27 28 30 31 33 34 34 35 37 38 39 40 41 41 41 41 42 43 43
6 8 11 13 14 15 18 19 19 18 18 17 19 23 28 28 25 24 25 25 26 25 25 26 25 26 27 27 28 29 31 33 35 36 38 39 40 40 42 43 43 44 45 45
9 11 13 13 14 16 17 18 18 19 18 16 18 21 19 21 22 22 22 23 24 25 25 25 26 26 27 28 29 31 32 34 36 38 39 40 41 43 43 45 46 46 47 47
7 8 10 11 13 15 15 16 19 21 21 19 18 19 16 12 14 18 20 21 23 24 25 26 27 28 29 31 32 33 35 37 38 39 41 42 43 44 45 46 47 47 47 47
6 7 7 10 11 13 15 14 16 20 22 22 25 24 19 14 13 14 17 19 22 23 25 27 28 30 31 33 34 35 37 38 39 40 42 42 43 44 45 46 46 46 47 47
4 4 4 8 9 11 11 13 15 19 23 25 26 23 21 19 17 17 18 19 22 24 25 27 29 31 33 34 36 37 38 39 40 40 41 42 42 43 43 44 44 44 44 44
2 1 3 4 6 9 8 9 14 18 21 22 23 23 22 20 20 20 20 21 22 24 25 27 29 31 32 33 34 36 37 38 38 39 39 39 39 40 40 41 40 40 41 41
1 2 2 1 2 4 7 10 13 16 20 21 22 24 25 23 23 23 22 22 23 24 25 26 27 29 30 31 31 32 33 34 34 35 35 36 36 37 37 38 38 38 38 38
2 1 1 2 3 6 8 11 13 15 17 20 22 24 25 25 24 24 24 23 23 23 23 25 26 27 28 29 29 30 31 31 31 32 32 32 33 33 33 33 34 34 34 34
4 3 1 2 5 8 9 11 13 14 16 18 20 22 23 23 23 23 22 22 23 24 25 25 26 26 26 26 27 27 27 27 27 28 28 28 28 29 29 29 30 30 31 32
4 4 3 3 6 9 11 11 12 14 15 16 18 19 20 20 21 20 20 20 21 22 22 21 21 22 22 22 23 23 23 24 24 24 25 25 25 26 27 27 28 29 29 29
4 4 5 6 7 8 11 12 12 13 14 15 16 16 16 17 18 17 17 18 19 19 19 19 19 19 19 19 19 20 20 21 22 23 24 25 25 26 27 27 27 27 27 27
4 5 6 7 8 9 11 11 12 13 13 13 13 13 13 13 13 13 13 14 14 14 14 14 14 15 15 17 18 19 20 21 22 23 24 25 25 26 26 25 25 24 24 23
5 6 7 8 9 10 11 11 12 12 12 11 11 11 11 11 11 11 11 11 11 11 11 11 12 14 15 16 17 19 19 20 21 22 23 23 23 23 22 22 21 21 21 20
4 6 7 8 9 10 11 11 11 11 11 11 11 10 10 10 9 9 9 9 9 10 10 11 12 13 14 16 17 18 19 20 20 20 20 20 19 19 19 19 18 18 18 17
4 6 7 9 10 10 11 12 12 12 11 11 10 10 10 9 9 9 9 9 10 10 10 11 12 13 14 16 17 18 18 19 18 18 17 16 17 17 17 16 15 15 15 15
4 6 8 10 11 11 12 13 12 12 12 11 11 10 9 9 9 9 10 10 10 10 11 12 13 14 15 16 17 17 17 17 17 16 15 15 15 15 14 13 13 13 13 12
Wind_Direction
251 242 236 234 237 213 212 220 220 221 225 225 223 216 211 217 224 228 231 228 225 230 238 238 236 236 235 238 243 246 250 256 259 261 261 261 262 265 267 271 272 271 272 274
246 249 236 224 230 219 213 210 199 202 216 217 213 211 212 218 222 223 225 225 228 234 235 237 236 231 229 234 241 246 251 257 261 264 264 264 266 267 268 271 274 276 274 273
241 232 240 229 228 227 219 207 203 210 221 225 211 209 214 219 220 222 223 225 232 239 240 230 229 226 229 233 239 245 251 257 262 266 268 268 270 271 270 271 272 276 275 275
244 238 240 238 231 226 223 212 208 212 216 222 216 214 220 223 225 225 227 228 234 240 243 238 236 234 232 234 241 244 250 256 261 267 270 269 269 271 271 271 274 277 277 277
234 244 240 238 232 223 211 211 216 213 208 211 216 220 231 230 227 225 228 229 233 239 245 245 240 233 234 237 240 245 251 257 263 268 269 270 272 274 276 276 278 280 282 282
232 230 233 230 225 217 206 208 217 218 214 217 213 220 235 233 230 226 228 233 237 241 245 248 247 245 245 246 246 249 254 259 264 269 273 275 279 279 279 278 279 284 289 291
246 233 227 224 217 214 206 201 209 219 219 220 214 226 239 236 235 232 228 231 237 240 244 247 249 251 253 254 254 255 258 261 264 267 273 276 278 281 284 284 285 287 291 295
245 232 218 219 214 208 210 198 194 209 224 227 225 232 242 245 248 241 233 232 237 241 242 244 247 250 253 256 258 260 261 265 267 269 273 277 280 283 287 289 289 290 294 298
249 221 201 207 208 197 206 198 196 216 221 218 224 230 240 247 251 251 247 240 240 242 243 244 246 249 252 255 257 259 260 263 267 270 273 276 280 283 287 290 293 294 297 298
257 201 180 189 203 197 192 202 207 218 230 233 236 236 240 243 247 247 246 243 241 242 243 244 246 249 252 256 258 259 260 263 266 269 272 276 279 282 286 289 292 294 295 295
243 206 181 184 195 203 196 200 208 221 239 253 252 245 241 235 231 234 238 242 243 242 244 244 247 250 253 256 258 260 262 264 267 270 273 276 279 282 285 288 290 291 291 292
224 204 197 190 185 192 201 204 211 223 238 258 269 272 264 233 222 226 233 238 241 242 243 244 246 250 253 257 260 263 265 267 270 272 274 277 280 282 285 287 288 289 289 291
220 210 187 185 184 187 198 203 215 225 235 248 266 275 274 255 238 236 239 243 245 244 246 247 249 252 255 258 262 264 267 269 272 274 276 278 280 282 284 285 286 287 288 289
215 211 206 188 189 190 191 204 218 225 234 245 257 268 274 274 266 255 253 253 252 252 253 254 254 256 258 261 263 266 268 270 272 274 276 278 280 281 282 283 284 285 286 287
243 230 190 173 183 194 198 211 222 230 236 242 251 264 272 276 276 271 268 265 262 259 258 258 258 259 261 263 265 267 270 272 273 275 277 278 279 280 281 283 284 285 287 289
279 354 146 153 164 191 212 226 234 238 243 252 256 268 275 278 280 278 275 271 267 266 264 264 265 265 266 268 269 269 270 272 273 275 277 278 280 281 283 285 287 288 290 291
354 9 39 47 182 219 246 243 246 249 253 261 265 272 282 286 285 284 281 273 269 267 266 266 267 268 270 271 271 272 273 273 274 276 278 280 281 282 284 287 289 291 292 294
13 34 59 331 270 254 269 269 267 265 267 269 273 276 281 284 284 282 278 275 271 267 267 271 273 274 276 275 275 276 277 277 277 279 280 282 283 285 287 290 292 293 295 297
16 19 5 304 295 291 290 285 282 280 279 277 278 280 283 284 282 279 275 274 273 272 271 271 272 273 274 274 274 275 278 279 280 281 283 285 287 289 292 294 296 297 298 299
18 2 346 323 302 299 302 301 296 293 290 287 287 287 286 284 282 281 278 276 273 273 272 272 273 275 275 276 278 281 283 285 287 288 289 290 292 293 294 295 296 298 300 302
12 357 346 327 313 314 314 313 307 303 301 298 296 295 293 292 288 286 282 279 277 276 275 275 276 278 280 284 288 290 293 294 294 294 293 293 293 294 295 295 296 298 301 304
4 353 346 338 333 325 323 322 318 315 312 309 306 305 303 302 298 293 290 289 286 285 284 284 283 287 288 291 294 295 296 297 297 296 295 294 294 294 295 296 297 299 301 304
360 357 354 351 347 341 337 334 330 327 323 321 320 318 314 311 309 310 309 306 301 298 298 297 296 297 297 298 298 298 300 301 300 299 298 297 297 297 297 297 298 300 302 304
4 359 1 359 357 353 350 346 343 340 337 335 334 331 329 326 323 320 320 321 318 314 309 304 301 300 300 301 301 301 302 303 304 302 301 301 300 299 297 296 298 301 303 306
14 7 8 7 3 0 358 356 354 354 352 348 346 345 343 340 336 332 330 327 324 320 316 312 309 308 306 305 305 304 304 305 306 305 304 304 305 304 301 298 299 302 305 308
21 17 13 11 9 6 5 2 1 359 357 355 353 353 353 351 348 344 339 334 329 325 322 318 315 312 310 309 308 307 305 305 306 305 305 305 305 305 305 302 303 306 309 311
Height
5774 5777 5779 5781 5784 5787 5791 5795 5800 5804 5805 5806 5808 5812 5816 5819 5823 5826 5827 5829 5830 5833 5834 5834 5835 5837 5841 5845 5847 5848 5850 5852 5854 5855 5857 5858 5859 5860 5860 5861 5861 5862 5862 5861
5772 5774 5776 5779 5781 5784 5787 5790 5795 5799 5800 5802 5806 5810 5813 5816 5819 5821 5823 5824 5825 5827 5828 5828 5829 5833 5837 5840 5842 5844 5846 5848 5849 5851 5852 5853 5854 5855 5855 5856 5856 5856 5855 5855
5769 5773 5773 5774 5777 5780 5783 5786 5791 5794 5797 5799 5803 5806 5809 5810 5813 5815 5816 5819 5820 5819 5818 5816 5819 5824 5830 5834 5837 5840 5842 5843 5845 5846 5847 5848 5849 5849 5850 5850 5850 5849 5849 5847
5766 5768 5769 5770 5773 5776 5779 5784 5787 5790 5794 5797 5800 5802 5804 5805 5807 5810 5810 5812 5813 5815 5813 5813 5816 5819 5825 5828 5832 5835 5837 5839 5840 5841 5841 5842 5842 5843 5843 5844 5843 5842 5841 5840
5763 5765 5766 5768 5770 5773 5777 5782 5784 5787 5790 5794 5797 5800 5800 5800 5801 5803 5805 5806 5808 5811 5811 5810 5811 5815 5820 5824 5827 5830 5832 5834 5835 5835 5835 5835 5836 5836 5836 5836 5836 5835 5834 5833
5759 5761 5762 5765 5767 5770 5774 5778 5781 5784 5787 5790 5792 5796 5794 5792 5793 5797 5800 5802 5805 5808 5809 5810 5812 5814 5817 5820 5822 5825 5827 5828 5829 5830 5829 5828 5829 5829 5828 5829 5828 5828 5827 5826
5755 5756 5758 5761 5764 5767 5771 5775 5780 5783 5785 5787 5790 5792 5786 5785 5788 5792 5795 5799 5802 5804 5806 5808 5809 5811 5813 5816 5818 5819 5821 5822 5823 5824 5824 5824 5823 5823 5822 5821 5820 5820 5820 5819
5750 5752 5755 5758 5761 5765 5768 5773 5778 5782 5785 5786 5788 5786 5782 5783 5785 5789 5793 5796 5798 5800 5802 5804 5806 5808 5810 5812 5813 5814 5815 5817 5817 5817 5818 5818 5817 5816 5816 5815 5814 5813 5812 5811
5748 5750 5752 5756 5759 5763 5767 5769 5774 5776 5777 5780 5781 5778 5778 5780 5783 5787 5790 5793 5794 5796 5797 5799 5801 5803 5804 5806 5807 5808 5810 5811 5811 5812 5812 5812 5811 5810 5809 5808 5807 5806 5805 5804
5747 5748 5751 5755 5758 5761 5765 5769 5771 5773 5773 5774 5774 5774 5774 5775 5779 5782 5784 5787 5789 5791 5792 5793 5795 5796 5798 5799 5800 5801 5803 5804 5804 5805 5805 5805 5804 5803 5802 5801 5799 5798 5797 5795
5747 5748 5750 5753 5756 5760 5763 5766 5768 5771 5771 5770 5769 5770 5766 5768 5771 5775 5778 5781 5783 5785 5787 5788 5789 5791 5792 5793 5794 5795 5796 5797 5797 5798 5798 5797 5797 5796 5795 5793 5791 5789 5788 5786
5746 5747 5748 5750 5753 5758 5761 5764 5766 5768 5768 5767 5765 5766 5758 5758 5764 5769 5773 5776 5778 5780 5781 5782 5784 5785 5786 5787 5788 5788 5789 5790 5790 5790 5790 5789 5788 5787 5786 5784 5782 5780 5778 5775
5746 5746 5747 5750 5754 5756 5759 5762 5764 5765 5765 5764 5762 5762 5756 5756 5761 5765 5768 5770 5772 5774 5776 5777 5778 5779 5780 5781 5781 5782 5782 5782 5782 5782 5781 5780 5779 5777 5776 5774 5772 5769 5767 5765
5746 5745 5747 5749 5751 5752 5756 5759 5760 5762 5762 5761 5759 5758 5755 5756 5760 5762 5764 5765 5767 5769 5770 5771 5772 5773 5773 5774 5774 5774 5773 5773 5773 5772 5771 5770 5769 5767 5766 5764 5762 5759 5757 5755
5746 5745 5745 5748 5750 5752 5755 5756 5757 5758 5758 5757 5756 5755 5753 5755 5756 5758 5759 5760 5762 5762 5763 5764 5765 5765 5765 5765 5765 5765 5764 5764 5763 5763 5762 5761 5759 5757 5755 5754 5751 5749 5747 5745
5748 5747 5747 5749 5749 5751 5753 5754 5754 5754 5754 5754 5753 5752 5750 5751 5752 5753 5754 5755 5756 5756 5756 5756 5757 5757 5757 5756 5756 5756 5755 5755 5754 5753 5752 5751 5750 5748 5746 5744 5742 5740 5737 5735
5749 5748 5749 5749 5750 5751 5752 5752 5752 5752 5751 5751 5750 5750 5747 5747 5748 5748 5749 5749 5749 5749 5749 5749 5749 5749 5748 5748 5747 5747 5746 5746 5745 5744 5743 5742 5741 5739 5737 5735 5733 5731 5728 5726
5749 5749 5750 5750 5751 5751 5753 5750 5749 5749 5748 5747 5746 5745 5744 5744 5743 5743 5743 5743 5743 5743 5742 5742 5742 5741 5741 5740 5740 5739 5738 5738 5737 5736 5735 5733 5732 5730 5728 5726 5724 5722 5720 5717
5750 5750 5750 5750 5750 5749 5749 5748 5747 5746 5745 5743 5742 5741 5740 5739 5738 5737 5737 5737 5737 5736 5736 5735 5735 5734 5734 5733 5733 5732 5731 5730 5729 5728 5727 5725 5724 5722 5720 5719 5716 5714 5712 5709
5751 5751 5751 5750 5749 5749 5748 5746 5744 5744 5742 5740 5738 5737 5736 5734 5734 5733 5732 5731 5731 5731 5730 5729 5729 5728 5727 5727 5726 5725 5724 5724 5723 5721 5720 5718 5717 5715 5713 5711 5709 5707 5704 5702
5752 5751 5750 5749 5748 5747 5746 5744 5743 5742 5740 5737 5735 5733 5732 5731 5730 5729 5727 5727 5726 5725 5725 5724 5723 5723 5722 5722 5721 5720 5719 5717 5716 5715 5713 5711 5710 5708 5706 5704 5702 5699 5697 5695
5753 5752 5751 5749 5748 5748 5744 5742 5741 5739 5736 5734 5732 5730 5729 5727 5726 5725 5723 5722 5722 5721 5720 5719 5719 5718 5717 5717 5716 5715 5713 5712 5710 5708 5706 5704 5703 5701 5699 5697 5695 5693 5691 5688
5753 5752 5750 5749 5749 5745 5743 5741 5739 5736 5734 5732 5730 5728 5727 5725 5723 5722 5721 5720 5719 5718 5717 5716 5715 5715 5713 5712 5711 5710 5708 5706 5704 5701 5699 5697 5695 5694 5692 5690 5689 5687 5685 5683
5753 5752 5751 5749 5747 5745 5742 5740 5738 5735 5733 5731 5729 5727 5725 5723 5722 5721 5719 5718 5717 5716 5715 5714 5712 5711 5710 5708 5707 5705 5703 5701 5698 5696 5693 5691 5689 5688 5686 5685 5683 5682 5680 5679
5754 5752 5751 5749 5747 5745 5743 5740 5737 5735 5732 5730 5728 5726 5724 5723 5721 5720 5718 5717 5715 5714 5712 5711 5709 5707 5706 5704 5702 5700 5698 5695 5693 5690 5688 5686 5685 5683 5681 5680 5679 5678 5676 5675
5754 5753 5752 5750 5748 5746 5743 5740 5737 5735 5732 5730 5728 5726 5724 5722 5721 5719 5717 5715 5714 5712 5710 5708 5706 5704 5702 5700 5697 5695 5693 5690 5688 5686 5684 5682 5681 5679 5678 5677 5676 5674 5673 5671